Zacatecas Airport, Mexico

2:17 PM CST on November 20, 2017 (GMT -0600)
Gen Leobardo C Ruiz International

Weather History for MMZC - May, 2013

Change the Weather History Date:

Sunday, May 12, 2013

  Actual Average Record
Temperature  
Mean Temperature 65 °F -  
Max Temperature 82 °F 80 °F 89 °F (2002)
Min Temperature 48 °F 49 °F 39 °F (1999)
Growing Degree Days 15 (Base 50)    
Moisture  
Dew Point 33 °F    
Average Humidity 35    
Maximum Humidity 63    
Minimum Humidity 12    
Precipitation  
Precipitation 0.00 in - - ()
Sea Level Pressure  
Sea Level Pressure 30.22 in    
Wind  
Wind Speed 7 mph ()    
Max Wind Speed 24 mph    
Max Gust Speed 34 mph    
Visibility 9.3 miles    
Events      
Averages and records for this station are not official NWS values.
T = Trace of Precipitation, MM = Missing Value Source: Averaged Metar Reports

Daily Weather History Graph

Daily Weather History Graph

Search for Another Location

Airport or City:

Trip Planner

Search our weather history database for the weather conditions in past years. The results will help you decide how hot, cold, wet, or windy it might be!

Date:

Astronomy

May. 12, 2013 Rise Set
Actual Time 7:11 AM CDT 8:23 PM CDT
Civil Twilight 6:47 AM CDT 8:47 PM CDT
Nautical Twilight 6:18 AM CDT 9:15 PM CDT
Astronomical Twilight 5:49 AM CDT 9:45 PM CDT
Moon 9:12 AM CDT (5/12) 10:48 PM CDT (5/12)
Length of Visible Light 14h 00m
Length of Day
13h 12m
Waxing Crescent, 7% of the Moon is Illuminated
May 12
Waxing Crescent
May 17
First Quarter
May 24
Full
May 31
Last Quarter
Jun 8
New

Hourly Weather History & Observations

Time (CDT) Temp. Dew Point Humidity Pressure Visibility Wind Dir Wind Speed Gust Speed Precip Events Conditions
12:40 AM 62.6 °F 30.2 °F 30% 30.25 in 10.0 mi SSW 6.9 mph - N/A   Clear
1:41 AM 57.2 °F 28.4 °F 33% 30.23 in 10.0 mi South 6.9 mph - N/A   Clear
2:41 AM 60.8 °F 30.2 °F 31% 30.22 in 10.0 mi WSW 6.9 mph - N/A   Clear
3:41 AM 57.2 °F 28.4 °F 33% 30.22 in 10.0 mi Calm Calm - N/A   Partly Cloudy
4:49 AM 48.2 °F 26.6 °F 43% 30.22 in 10.0 mi WSW 5.8 mph - N/A   Partly Cloudy
5:49 AM 51.8 °F 30.2 °F 44% 30.23 in 10.0 mi SSW 8.1 mph - N/A   Partly Cloudy
6:41 AM 48.2 °F 32.0 °F 54% 30.23 in 10.0 mi Calm Calm - N/A   Partly Cloudy
7:44 AM 51.8 °F 37.4 °F 58% 30.25 in 8.0 mi SSW 5.8 mph - N/A   Partly Cloudy
8:47 AM 60.8 °F 44.6 °F 55% 30.26 in 10.0 mi SSW 4.6 mph - N/A   Partly Cloudy
9:50 AM 64.4 °F 44.6 °F 49% 30.29 in 9.0 mi North 9.2 mph - N/A   Scattered Clouds
10:51 AM 68.0 °F 41.0 °F 37% 30.28 in 10.0 mi North 4.6 mph - N/A   Scattered Clouds
11:41 AM 71.6 °F 42.8 °F 35% 30.28 in 10.0 mi North 6.9 mph - N/A   Scattered Clouds
12:53 PM 73.4 °F 37.4 °F 27% 30.24 in 10.0 mi Calm Calm - N/A   Scattered Clouds
1:43 PM 78.8 °F 30.2 °F 17% 30.22 in 10.0 mi West 11.5 mph - N/A   Scattered Clouds
2:51 PM 80.6 °F 26.6 °F 14% 30.18 in 8.0 mi WSW 24.2 mph - N/A   Mostly Cloudy
4:03 PM 82.4 °F 26.6 °F 13% 30.15 in 8.0 mi WSW 17.3 mph 28.8 mph N/A   Mostly Cloudy
5:45 PM 82.4 °F 24.8 °F 12% 30.12 in 8.0 mi West 15.0 mph - N/A   Mostly Cloudy
6:44 PM 80.6 °F 23.0 °F 12% 30.12 in 8.0 mi WSW 17.3 mph - N/A   Scattered Clouds
7:44 PM 77.0 °F 23.0 °F 13% 30.13 in 8.0 mi West 11.5 mph - N/A   Scattered Clouds
8:40 PM 73.4 °F 24.8 °F 16% 30.16 in 8.0 mi NNE 8.1 mph - N/A   Mostly Cloudy
9:42 PM 62.6 °F 44.6 °F 52% 30.21 in 10.0 mi ENE 17.3 mph 34.5 mph N/A   Mostly Cloudy
10:41 PM 60.8 °F 46.4 °F 59% 30.26 in 10.0 mi ENE 18.4 mph - N/A   Mostly Cloudy
11:40 PM 59.0 °F 46.4 °F 63% 30.29 in 10.0 mi ENE 17.3 mph - N/A   Mostly Cloudy